Location: Zilina
(0.0000°N, 18.7333°E)
Time: 22:54:08
(UTC+02:00)

Envisat - Pass Details

Date: 19 February 2019
Orbit: 764 x 766 km, 98.1° (Epoch: 17 October)

Event Time Altitude Azimuth Distance (km) Brightness Sun altitude
Rises 18:35:34 0° 160° (SSE) 3,229 6.1 -9.0°
Reaches altitude 10° 18:37:55 10° 156° (SSE) 2,301 5.3 -9.6°
Maximum altitude 18:42:53 55° 78° (ENE) 910 3.1 -10.8°
Drops below altitude 10° 18:47:48 10° 1° (N) 2,290 5.3 -12.0°
Sets 18:50:08 0° 356° (N) 3,213 6.1 -12.6°
